QPF
0.01 0.02 0.03 0.03 0.02 0.02 0.01 0.01 0.02 0.03 0.04 0.06 0.06 0.07 0.08 0.07 0.07 0.06 0.04 0.04 0.05 0.07 0.06 0.04 0.04 0.06 0.06 0.07 0.07 0.07 0.07 0.07 0.08 0.07 0.06 0.06 0.06 0.07
0.03 0.04 0.04 0.02 0.02 0.02 0.02 0.02 0.01 0.02 0.03 0.04 0.05 0.05 0.06 0.07 0.07 0.05 0.05 0.04 0.05 0.07 0.07 0.06 0.05 0.05 0.06 0.05 0.05 0.05 0.05 0.04 0.04 0.04 0.04 0.04 0.04 0.05
0.03 0.04 0.05 0.04 0.03 0.02 0.02 0.02 0.01 0.01 0.02 0.02 0.04 0.06 0.05 0.06 0.07 0.05 0.06 0.06 0.04 0.05 0.06 0.06 0.05 0.05 0.05 0.05 0.05 0.03 0.03 0.03 0.02 0.02 0.02 0.02 0.03 0.04
0.03 0.04 0.05 0.05 0.04 0.03 0.02 0.02 0.02 0.02 0.02 0.02 0.03 0.04 0.05 0.06 0.07 0.07 0.06 0.06 0.04 0.05 0.05 0.06 0.06 0.05 0.04 0.04 0.04 0.04 0.04 0.03 0.03 0.02 0.03 0.03 0.03 0.02
0.03 0.03 0.03 0.03 0.03 0.03 0.03 0.03 0.03 0.02 0.02 0.03 0.03 0.04 0.05 0.07 0.06 0.06 0.06 0.06 0.05 0.06 0.07 0.06 0.06 0.07 0.06 0.05 0.04 0.04 0.04 0.04 0.03 0.03 0.03 0.03 0.03 0.03
0.01 0.02 0.01 0.01 0.01 0.02 0.02 0.01 0.01 0.01 0.01 0.02 0.04 0.04 0.05 0.06 0.06 0.05 0.04 0.04 0.06 0.06 0.06 0.06 0.06 0.06 0.06 0.05 0.05 0.04 0.04 0.03 0.03 0.03 0.03 0.03 0.03 0.02
0.01 0.01 0.01 0.01 0.01 0.00 0.00 0.01 0.01 0.01 0.01 0.02 0.03 0.04 0.04 0.04 0.05 0.04 0.04 0.04 0.05 0.05 0.04 0.04 0.04 0.04 0.04 0.04 0.04 0.04 0.04 0.03 0.03 0.03 0.03 0.03 0.04 0.04
0.01 0.01 0.01 0.01 0.01 0.01 0.00 0.01 0.01 0.00 0.00 0.01 0.02 0.02 0.02 0.02 0.02 0.03 0.04 0.03 0.05 0.05 0.04 0.03 0.02 0.02 0.02 0.03 0.04 0.04 0.04 0.04 0.04 0.03 0.02 0.03 0.03 0.04
0.01 0.01 0.01 0.01 0.01 0.01 0.01 0.01 0.01 0.00 0.00 0.00 0.01 0.01 0.01 0.01 0.01 0.02 0.03 0.02 0.02 0.04 0.05 0.05 0.03 0.02 0.01 0.02 0.03 0.04 0.05 0.05 0.05 0.05 0.04 0.03 0.03 0.04
0.01 0.01 0.01 0.01 0.01 0.01 0.01 0.01 0.01 0.00 0.00 0.00 0.00 0.01 0.01 0.01 0.01 0.01 0.02 0.02 0.03 0.03 0.04 0.04 0.04 0.04 0.04 0.03 0.03 0.03 0.03 0.04 0.05 0.05 0.05 0.04 0.04 0.03
0.01 0.01 0.01 0.00 0.01 0.02 0.01 0.01 0.00 0.00 0.00 0.00 0.01 0.02 0.02 0.01 0.01 0.01 0.01 0.02 0.02 0.02 0.03 0.04 0.04 0.04 0.05 0.05 0.04 0.05 0.05 0.05 0.05 0.05 0.04 0.04 0.03 0.03
0.01 0.01 0.01 0.01 0.01 0.02 0.02 0.01 0.01 0.01 0.01 0.01 0.01 0.02 0.02 0.02 0.02 0.02 0.01 0.02 0.02 0.02 0.02 0.04 0.05 0.06 0.05 0.04 0.04 0.03 0.03 0.04 0.04 0.04 0.04 0.03 0.03 0.02
0.00 0.00 0.01 0.02 0.02 0.02 0.03 0.03 0.02 0.02 0.02 0.02 0.02 0.01 0.02 0.02 0.02 0.01 0.01 0.02 0.02 0.02 0.02 0.03 0.04 0.05 0.04 0.03 0.03 0.03 0.03 0.03 0.03 0.02 0.02 0.02 0.03 0.03
0.01 0.01 0.01 0.02 0.02 0.03 0.03 0.04 0.04 0.03 0.03 0.03 0.03 0.02 0.02 0.02 0.02 0.02 0.02 0.02 0.02 0.03 0.04 0.04 0.04 0.04 0.04 0.03 0.02 0.02 0.02 0.02 0.02 0.02 0.02 0.02 0.03 0.03
0.00 0.00 0.01 0.01 0.01 0.02 0.03 0.03 0.04 0.04 0.03 0.03 0.02 0.02 0.02 0.02 0.02 0.03 0.03 0.03 0.03 0.03 0.04 0.04 0.04 0.03 0.03 0.02 0.01 0.01 0.01 0.02 0.02 0.02 0.02 0.02 0.02 0.03
0.00 0.00 0.00 0.01 0.01 0.02 0.03 0.03 0.02 0.02 0.03 0.03 0.03 0.03 0.03 0.03 0.03 0.04 0.04 0.04 0.03 0.03 0.03 0.03 0.03 0.02 0.01 0.01 0.01 0.01 0.02 0.02 0.02 0.02 0.02 0.02 0.02 0.02
0.00 0.00 0.00 0.01 0.01 0.02 0.03 0.04 0.02 0.01 0.01 0.02 0.02 0.03 0.04 0.04 0.04 0.04 0.04 0.04 0.03 0.03 0.03 0.03 0.03 0.02 0.02 0.01 0.01 0.01 0.01 0.01 0.01 0.01 0.01 0.01 0.01 0.01
0.00 0.00 0.00 0.01 0.02 0.01 0.02 0.03 0.02 0.02 0.02 0.01 0.01 0.02 0.03 0.03 0.04 0.04 0.04 0.03 0.03 0.03 0.02 0.02 0.03 0.02 0.02 0.01 0.01 0.01 0.01 0.00 0.00 0.00 0.00 0.00 0.01 0.01
0.00 0.00 0.00 0.00 0.01 0.01 0.01 0.01 0.01 0.01 0.01 0.01 0.01 0.01 0.02 0.02 0.03 0.03 0.02 0.02 0.02 0.03 0.04 0.03 0.03 0.02 0.02 0.01 0.01 0.01 0.00 0.00 0.00 0.00 0.00 0.00 0.00 0.01
0.00 0.00 0.00 0.00 0.00 0.00 0.00 0.01 0.01 0.01 0.00 0.00 0.00 0.01 0.01 0.01 0.02 0.02 0.02 0.02 0.02 0.01 0.02 0.02 0.02 0.02 0.02 0.02 0.01 0.01 0.01 0.00 0.00 0.00 0.00 0.00 0.00 0.00
0.00 0.00 0.00 0.00 0.00 0.00 0.00 0.00 0.00 0.00 0.00 0.00 0.00 0.00 0.01 0.01 0.01 0.02 0.02 0.01 0.01 0.01 0.01 0.02 0.02 0.02 0.01 0.01 0.01 0.00 0.00 0.00 0.00 0.00 0.00 0.00 0.00 0.01
0.00 0.00 0.00 0.00 0.00 0.00 0.00 0.00 0.00 0.00 0.00 0.00 0.00 0.00 0.00 0.01 0.01 0.01 0.01 0.01 0.01 0.01 0.01 0.01 0.01 0.01 0.00 0.00 0.00 0.00 0.00 0.00 0.01 0.01 0.00 0.00 0.01 0.01
0.00 0.00 0.00 0.00 0.00 0.00 0.00 0.00 0.00 0.00 0.00 0.00 0.00 0.00 0.00 0.00 0.01 0.01 0.00 0.01 0.01 0.01 0.01 0.01 0.02 0.01 0.01 0.00 0.00 0.00 0.00 0.00 0.00 0.01 0.01 0.01 0.01 0.01
MSLP
1013.54 1013.46 1013.42 1013.41 1013.43 1013.46 1013.49 1013.52 1013.53 1013.53 1013.51 1013.47 1013.41 1013.33 1013.23 1013.12 1013.01 1012.91 1012.84 1012.82 1012.86 1012.97 1013.14 1013.36 1013.61 1013.88 1014.13 1014.36 1014.55 1014.71 1014.85 1014.98 1015.13 1015.29 1015.49 1015.71 1015.95 1016.18
1013.77 1013.66 1013.58 1013.53 1013.50 1013.50 1013.52 1013.55 1013.59 1013.64 1013.68 1013.71 1013.72 1013.70 1013.65 1013.56 1013.45 1013.33 1013.21 1013.14 1013.11 1013.15 1013.25 1013.40 1013.60 1013.81 1014.02 1014.20 1014.36 1014.48 1014.58 1014.67 1014.77 1014.88 1015.03 1015.21 1015.40 1015.61
1013.98 1013.86 1013.76 1013.67 1013.62 1013.59 1013.59 1013.62 1013.69 1013.78 1013.88 1013.99 1014.07 1014.12 1014.12 1014.06 1013.96 1013.83 1013.68 1013.55 1013.46 1013.42 1013.44 1013.52 1013.64 1013.79 1013.94 1014.06 1014.16 1014.23 1014.28 1014.32 1014.37 1014.44 1014.54 1014.67 1014.83 1015.01
1014.18 1014.07 1013.96 1013.86 1013.77 1013.72 1013.71 1013.75 1013.84 1013.97 1014.12 1014.28 1014.43 1014.54 1014.58 1014.56 1014.47 1014.34 1014.16 1013.99 1013.84 1013.73 1013.67 1013.67 1013.71 1013.78 1013.85 1013.91 1013.95 1013.95 1013.95 1013.93 1013.93 1013.96 1014.02 1014.12 1014.25 1014.41
1014.32 1014.24 1014.15 1014.05 1013.97 1013.91 1013.89 1013.93 1014.03 1014.18 1014.36 1014.57 1014.75 1014.90 1014.98 1014.98 1014.91 1014.76 1014.58 1014.37 1014.17 1014.00 1013.87 1013.80 1013.76 1013.75 1013.74 1013.73 1013.70 1013.64 1013.58 1013.52 1013.47 1013.46 1013.49 1013.57 1013.68 1013.81
1014.39 1014.35 1014.29 1014.22 1014.15 1014.09 1014.08 1014.12 1014.22 1014.38 1014.57 1014.79 1014.99 1015.15 1015.25 1015.27 1015.19 1015.05 1014.85 1014.62 1014.39 1014.18 1014.00 1013.87 1013.76 1013.68 1013.61 1013.52 1013.43 1013.31 1013.20 1013.09 1013.01 1012.96 1012.97 1013.02 1013.11 1013.23
1014.36 1014.37 1014.35 1014.31 1014.26 1014.22 1014.22 1014.26 1014.36 1014.51 1014.70 1014.90 1015.10 1015.26 1015.35 1015.37 1015.30 1015.16 1014.96 1014.73 1014.49 1014.26 1014.05 1013.87 1013.72 1013.59 1013.45 1013.31 1013.15 1012.99 1012.82 1012.67 1012.55 1012.48 1012.46 1012.49 1012.57 1012.67
1014.21 1014.26 1014.28 1014.28 1014.26 1014.25 1014.26 1014.31 1014.40 1014.54 1014.71 1014.89 1015.07 1015.21 1015.30 1015.31 1015.25 1015.12 1014.93 1014.71 1014.48 1014.25 1014.04 1013.85 1013.67 1013.49 1013.31 1013.12 1012.92 1012.70 1012.49 1012.30 1012.15 1012.04 1011.99 1011.99 1012.04 1012.12
1013.92 1014.01 1014.07 1014.11 1014.13 1014.15 1014.18 1014.24 1014.33 1014.45 1014.60 1014.77 1014.92 1015.04 1015.11 1015.13 1015.07 1014.96 1014.81 1014.62 1014.41 1014.21 1014.01 1013.82 1013.63 1013.44 1013.23 1013.00 1012.75 1012.50 1012.24 1012.01 1011.81 1011.67 1011.58 1011.54 1011.56 1011.60
1013.49 1013.61 1013.71 1013.79 1013.85 1013.91 1013.98 1014.05 1014.15 1014.27 1014.41 1014.55 1014.69 1014.79 1014.86 1014.88 1014.85 1014.77 1014.65 1014.51 1014.35 1014.19 1014.02 1013.85 1013.66 1013.46 1013.23 1012.98 1012.70 1012.40 1012.10 1011.83 1011.59 1011.39 1011.26 1011.18 1011.15 1011.14
1012.95 1013.10 1013.23 1013.36 1013.47 1013.57 1013.68 1013.78 1013.90 1014.03 1014.16 1014.30 1014.42 1014.52 1014.59 1014.63 1014.63 1014.59 1014.52 1014.43 1014.33 1014.22 1014.09 1013.95 1013.78 1013.58 1013.34 1013.07 1012.76 1012.43 1012.10 1011.78 1011.50 1011.26 1011.07 1010.94 1010.85 1010.79
1012.33 1012.50 1012.68 1012.85 1013.01 1013.17 1013.32 1013.46 1013.61 1013.75 1013.89 1014.03 1014.15 1014.26 1014.35 1014.41 1014.44 1014.45 1014.44 1014.41 1014.37 1014.31 1014.23 1014.11 1013.97 1013.78 1013.54 1013.25 1012.93 1012.58 1012.22 1011.88 1011.56 1011.28 1011.05 1010.86 1010.72 1010.61
1011.63 1011.85 1012.07 1012.29 1012.51 1012.72 1012.92 1013.10 1013.28 1013.45 1013.60 1013.75 1013.89 1014.01 1014.12 1014.21 1014.29 1014.35 1014.39 1014.42 1014.44 1014.43 1014.39 1014.32 1014.20 1014.02 1013.80 1013.52 1013.19 1012.84 1012.47 1012.11 1011.77 1011.47 1011.20 1010.98 1010.79 1010.62
1010.88 1011.15 1011.42 1011.70 1011.98 1012.24 1012.48 1012.71 1012.91 1013.10 1013.28 1013.45 1013.60 1013.74 1013.88 1014.01 1014.13 1014.24 1014.34 1014.43 1014.50 1014.54 1014.54 1014.51 1014.42 1014.28 1014.08 1013.82 1013.52 1013.18 1012.83 1012.48 1012.14 1011.82 1011.54 1011.29 1011.07 1010.87
1010.06 1010.39 1010.73 1011.06 1011.39 1011.70 1011.98 1012.24 1012.47 1012.69 1012.88 1013.07 1013.24 1013.41 1013.58 1013.74 1013.91 1014.07 1014.23 1014.37 1014.50 1014.59 1014.65 1014.66 1014.61 1014.51 1014.34 1014.13 1013.86 1013.57 1013.26 1012.94 1012.62 1012.32 1012.05 1011.79 1011.56 1011.34
1009.16 1009.55 1009.95 1010.34 1010.71 1011.06 1011.37 1011.66 1011.91 1012.15 1012.36 1012.57 1012.77 1012.97 1013.17 1013.39 1013.60 1013.82 1014.03 1014.23 1014.42 1014.56 1014.67 1014.73 1014.74 1014.69 1014.58 1014.42 1014.22 1013.98 1013.72 1013.46 1013.19 1012.93 1012.67 1012.43 1012.20 1011.98
1008.17 1008.61 1009.05 1009.48 1009.89 1010.27 1010.61 1010.92 1011.19 1011.45 1011.69 1011.92 1012.16 1012.40 1012.65 1012.92 1013.19 1013.47 1013.75 1014.02 1014.26 1014.47 1014.64 1014.76 1014.82 1014.83 1014.79 1014.70 1014.56 1014.39 1014.20 1014.00 1013.79 1013.57 1013.36 1013.15 1012.93 1012.71
1007.06 1007.54 1008.02 1008.47 1008.91 1009.30 1009.67 1010.00 1010.30 1010.58 1010.86 1011.13 1011.42 1011.71 1012.03 1012.37 1012.71 1013.07 1013.42 1013.75 1014.07 1014.34 1014.57 1014.75 1014.88 1014.95 1014.98 1014.95 1014.89 1014.79 1014.66 1014.52 1014.37 1014.20 1014.03 1013.84 1013.64 1013.43
1005.84 1006.33 1006.82 1007.30 1007.74 1008.16 1008.55 1008.91 1009.25 1009.57 1009.90 1010.24 1010.59 1010.96 1011.36 1011.78 1012.21 1012.65 1013.08 1013.50 1013.88 1014.23 1014.52 1014.76 1014.95 1015.08 1015.17 1015.20 1015.19 1015.15 1015.08 1014.99 1014.88 1014.75 1014.60 1014.44 1014.26 1014.06
1004.53 1005.01 1005.49 1005.97 1006.43 1006.87 1007.28 1007.69 1008.08 1008.47 1008.87 1009.29 1009.74 1010.21 1010.70 1011.22 1011.75 1012.28 1012.80 1013.29 1013.75 1014.16 1014.52 1014.82 1015.05 1015.23 1015.36 1015.43 1015.47 1015.46 1015.43 1015.37 1015.28 1015.18 1015.05 1014.90 1014.73 1014.54
1003.14 1003.59 1004.05 1004.52 1005.00 1005.46 1005.92 1006.39 1006.85 1007.33 1007.83 1008.35 1008.90 1009.49 1010.09 1010.72 1011.35 1011.97 1012.58 1013.15 1013.68 1014.15 1014.56 1014.90 1015.18 1015.39 1015.54 1015.64 1015.69 1015.71 1015.69 1015.64 1015.56 1015.47 1015.34 1015.20 1015.04 1014.86
1001.70 1002.11 1002.55 1003.02 1003.50 1004.01 1004.53 1005.06 1005.62 1006.20 1006.81 1007.45 1008.13 1008.83 1009.55 1010.28 1011.01 1011.73 1012.42 1013.06 1013.64 1014.17 1014.62 1014.99 1015.29 1015.52 1015.69 1015.80 1015.86 1015.87 1015.86 1015.80 1015.73 1015.63 1015.51 1015.37 1015.21 1015.03
1000.26 1000.61 1001.03 1001.49 1002.01 1002.56 1003.15 1003.77 1004.43 1005.12 1005.85 1006.61 1007.41 1008.22 1009.05 1009.88 1010.71 1011.50 1012.26 1012.96 1013.59 1014.15 1014.63 1015.03 1015.35 1015.60 1015.77 1015.88 1015.94 1015.96 1015.93 1015.88 1015.80 1015.69 1015.58 1015.44 1015.29 1015.13
Thickness
5660 5661 5661 5661 5662 5663 5664 5665 5664 5663 5666 5673 5679 5684 5688 5692 5695 5698 5701 5704 5706 5708 5709 5710 5711 5712 5712 5713 5714 5715 5716 5717 5717 5718 5718 5718 5718 5717
5660 5660 5660 5660 5661 5662 5663 5664 5665 5665 5665 5670 5675 5679 5684 5688 5690 5693 5696 5699 5701 5703 5704 5706 5707 5707 5708 5708 5709 5710 5711 5712 5712 5713 5713 5713 5713 5713
5660 5660 5660 5660 5660 5661 5662 5663 5664 5665 5665 5668 5671 5675 5679 5682 5685 5688 5691 5693 5695 5697 5699 5700 5702 5702 5703 5703 5704 5705 5706 5706 5707 5707 5708 5708 5708 5708
5660 5660 5660 5660 5660 5660 5661 5662 5663 5664 5665 5665 5667 5670 5674 5677 5679 5682 5684 5687 5689 5691 5693 5695 5696 5697 5697 5698 5699 5700 5701 5701 5701 5702 5702 5702 5702 5702
5660 5659 5660 5659 5659 5659 5660 5660 5661 5663 5663 5663 5664 5666 5669 5672 5673 5676 5678 5680 5682 5685 5687 5688 5689 5690 5692 5693 5694 5694 5695 5695 5695 5695 5696 5696 5696 5696
5660 5659 5659 5659 5659 5659 5659 5659 5660 5660 5660 5661 5661 5662 5664 5666 5668 5669 5670 5673 5675 5678 5680 5681 5683 5684 5685 5686 5687 5688 5688 5689 5689 5689 5689 5690 5690 5690
5659 5659 5659 5659 5659 5659 5659 5658 5658 5657 5657 5657 5657 5658 5659 5661 5662 5664 5664 5666 5668 5670 5672 5674 5676 5677 5678 5680 5680 5681 5682 5682 5682 5683 5683 5683 5684 5684
5658 5658 5658 5658 5659 5659 5659 5659 5658 5656 5655 5654 5654 5655 5656 5657 5658 5659 5659 5659 5660 5663 5664 5666 5668 5669 5671 5672 5673 5674 5675 5675 5675 5675 5676 5677 5677 5677
5657 5656 5656 5657 5656 5656 5656 5657 5656 5657 5656 5654 5653 5653 5653 5655 5655 5655 5654 5654 5655 5656 5657 5658 5660 5661 5663 5665 5666 5667 5667 5668 5668 5668 5668 5669 5669 5669
5656 5654 5653 5653 5654 5653 5653 5652 5652 5652 5653 5653 5652 5652 5653 5653 5652 5652 5651 5650 5650 5650 5651 5651 5652 5653 5656 5657 5658 5658 5659 5660 5660 5661 5661 5661 5661 5661
5654 5653 5652 5652 5653 5652 5650 5648 5648 5648 5649 5650 5650 5649 5650 5650 5649 5647 5646 5645 5644 5644 5644 5644 5645 5646 5647 5649 5650 5651 5651 5652 5653 5653 5653 5654 5654 5654
5652 5651 5651 5651 5650 5649 5647 5645 5644 5644 5644 5645 5644 5644 5644 5644 5644 5643 5642 5640 5638 5638 5638 5638 5638 5639 5639 5640 5641 5642 5643 5644 5644 5645 5645 5645 5646 5646
5650 5648 5648 5649 5648 5647 5645 5643 5643 5642 5640 5640 5638 5638 5637 5637 5637 5637 5636 5635 5634 5632 5632 5632 5631 5631 5631 5631 5632 5633 5633 5634 5635 5635 5636 5636 5637 5637
5648 5646 5645 5645 5645 5643 5641 5640 5640 5638 5635 5634 5632 5631 5630 5630 5630 5630 5629 5629 5628 5627 5625 5625 5624 5624 5623 5623 5623 5623 5624 5624 5624 5625 5626 5626 5627 5627
5645 5644 5642 5641 5640 5638 5637 5636 5634 5632 5630 5628 5626 5625 5624 5623 5623 5622 5621 5621 5620 5618 5618 5617 5617 5616 5616 5615 5614 5614 5614 5614 5614 5615 5615 5616 5616 5616
5640 5639 5637 5635 5633 5631 5630 5628 5627 5626 5624 5622 5620 5618 5618 5617 5616 5615 5613 5612 5611 5609 5608 5608 5608 5608 5607 5606 5605 5604 5603 5603 5603 5603 5604 5605 5605 5606
5634 5631 5628 5626 5624 5622 5621 5620 5619 5617 5616 5614 5613 5611 5610 5609 5607 5606 5604 5603 5600 5598 5597 5598 5598 5598 5597 5596 5595 5593 5592 5592 5591 5592 5593 5594 5594 5594
5629 5625 5622 5620 5619 5617 5615 5612 5611 5610 5608 5607 5605 5604 5602 5601 5599 5597 5595 5593 5591 5589 5587 5586 5587 5587 5586 5584 5582 5582 5581 5580 5580 5581 5581 5582 5584 5584
5622 5620 5618 5615 5613 5611 5608 5606 5604 5602 5601 5599 5598 5596 5594 5592 5590 5588 5586 5583 5581 5579 5577 5576 5575 5575 5575 5574 5571 5571 5570 5569 5569 5570 5570 5571 5572 5573
5616 5615 5613 5610 5607 5604 5602 5600 5597 5595 5593 5591 5589 5587 5586 5584 5581 5578 5576 5574 5572 5569 5567 5565 5564 5564 5563 5562 5561 5559 5559 5558 5558 5559 5559 5559 5560 5561
5609 5608 5607 5604 5601 5598 5596 5593 5590 5588 5585 5583 5580 5578 5576 5574 5571 5569 5566 5564 5562 5559 5557 5555 5554 5554 5552 5551 5549 5548 5547 5547 5547 5546 5547 5547 5548 5549
5603 5601 5599 5597 5595 5592 5588 5585 5582 5579 5576 5574 5572 5569 5567 5564 5562 5559 5557 5554 5552 5550 5548 5545 5544 5544 5542 5541 5539 5537 5536 5536 5535 5535 5534 5534 5533 5535
5596 5594 5591 5589 5586 5584 5581 5578 5575 5572 5569 5566 5563 5560 5558 5555 5552 5550 5547 5545 5542 5539 5537 5535 5533 5532 5530 5529 5527 5526 5525 5525 5524 5523 5522 5522 5521 5521